{"data":{"norad_id":48794,"intl_designator":"2021-045AD","name":"ONEWEB-0224","alt_names":[],"object_type":"PAYLOAD","status":"ACTIVE","operator":null,"country":"UK","launch_date":"2021-05-28","launch_site_code":"VOSTO","launch_vehicle":null,"mission":null,"orbit_class":"UNKNOWN","rcs_meters":null,"size_class":null,"mass_kg":null,"dimensions":null,"purposes":["comms"],"wikipedia_slug":null,"has_3d_model":false,"image_url":null,"decayed_at":null,"tle_current":{"epoch":"2026-09-19T22:24:36.802656Z","epoch_age_seconds":74719,"freshness":"FRESH","line1":"1 48794U 21045AD  26262.93375929  .00000184  00000+0  45352-3 0  9993","line2":"2 48794  87.8985 240.3332 0001121  75.0786 285.0468 13.15548577256736","mean_motion":13.15548577,"eccentricity":0.0001121,"inclination_deg":87.8985,"raan_deg":240.3332,"arg_perigee_deg":75.0786,"mean_anomaly_deg":285.0468,"bstar":0.00045352,"rev_number":25673,"period_min":109.46004010614,"perigee_km":1200.9209561003,"apogee_km":1202.6203713985,"semimajor_km":7579.9076637494,"source":"CELESTRAK","updated_at":"2026-09-20T09:00:44.620914Z"}}}